Weather History for Cushing, OK

Change the Weather History Date:

Saturday, April 20, 2013

  Actual Average Record
Temperature  
Mean Temperature 54 °F -  
Max Temperature 71 °F 73 °F 95 °F (1987)
Min Temperature 37 °F 49 °F 33 °F (1966)
Degree Days  
Heating Degree Days 11    
Growing Degree Days 4 (Base 50)    
Moisture  
Dew Point 39 °F    
Average Humidity 59    
Maximum Humidity 93    
Minimum Humidity 29    
Precipitation  
Precipitation 0.00 in - - ()
Sea Level Pressure  
Sea Level Pressure 30.08 in    
Wind  
Wind Speed 5 mph (SSE)    
Max Wind Speed 21 mph    
Max Gust Speed 28 mph    
Visibility 10 miles    
Events      
Averages and records for this station are not official NWS values.
T = Trace of Precipitation, MM = Missing Value Source: NWS Daily Summary

Daily Weather History Graph

Daily Weather History Graph

Search for Another Location

Airport:

Trip Planner

Search our weather history database for the weather conditions in past years. The results will help you decide how hot, cold, wet, or windy it might be!

Date:

Astronomy

Apr. 20, 2013 Rise Set
Actual Time 6:47 AM CDT 8:05 PM CDT
Civil Twilight 6:20 AM CDT 8:31 PM CDT
Nautical Twilight 5:48 AM CDT 9:03 PM CDT
Astronomical Twilight 5:15 AM CDT 9:37 PM CDT
Moon 2:59 PM CDT (4/20) 3:27 AM CDT (4/20)
Length of Visible Light 14h 11m
Length of Day
13h 17m
Waxing Gibbous, 71% of the Moon is Illuminated
Apr 20
Waxing Gibbous
Apr 25
Full
May 2
Last Quarter
May 9
New
May 17
First Quarter

Hourly Weather History & Observations

Time (CDT) Temp. Windchill Dew Point Humidity Pressure Visibility Wind Dir Wind Speed Gust Speed Precip Events Conditions
12:15 AM 44.6 °F 43.1 °F 37.4 °F 76% 30.08 in 10.0 mi South 3.5 mph - N/A   Clear
12:35 AM 46.4 °F 45.2 °F 37.4 °F 71% 30.08 in 10.0 mi South 3.5 mph - N/A   Clear
12:55 AM 44.6 °F 43.1 °F 37.4 °F 76% 30.08 in 10.0 mi South 3.5 mph - N/A   Clear
1:15 AM 44.6 °F 43.1 °F 37.4 °F 76% 30.08 in 10.0 mi South 3.5 mph - N/A   Clear
1:35 AM 44.6 °F - 37.4 °F 76% 30.08 in 10.0 mi Calm Calm - N/A   Clear
1:55 AM 44.6 °F 43.1 °F 37.4 °F 76% 30.08 in 10.0 mi South 3.5 mph - N/A   Clear
2:15 AM 44.6 °F - 37.4 °F 76% 30.08 in 10.0 mi Calm Calm - N/A   Clear
2:35 AM 44.6 °F - 35.6 °F 71% 30.08 in 10.0 mi Calm Calm - N/A   Clear
2:55 AM 44.6 °F - 35.6 °F 71% 30.07 in 10.0 mi Calm Calm - N/A   Clear
3:15 AM 42.8 °F - 35.6 °F 76% 30.08 in 10.0 mi Calm Calm - N/A   Clear
3:35 AM 41.0 °F - 35.6 °F 81% 30.08 in 10.0 mi Calm Calm - N/A   Clear
3:55 AM 39.2 °F - 35.6 °F 87% 30.08 in 10.0 mi Calm Calm - N/A   Clear
4:15 AM 39.2 °F - 35.6 °F 87% 30.08 in 10.0 mi Calm Calm - N/A   Clear
4:35 AM 37.4 °F - 35.6 °F 93% 30.09 in 10.0 mi Calm Calm - N/A   Clear
4:55 AM 37.4 °F - 35.6 °F 93% 30.09 in 10.0 mi Calm Calm - N/A   Clear
5:15 AM 39.2 °F - 37.4 °F 93% 30.09 in 10.0 mi Calm Calm - N/A   Clear
5:35 AM 39.2 °F - 37.4 °F 93% 30.09 in 10.0 mi Calm Calm - N/A   Clear
5:55 AM 39.2 °F - 35.6 °F 87% 30.09 in 10.0 mi Calm Calm - N/A   Clear
6:15 AM 39.2 °F - 35.6 °F 87% 30.09 in 10.0 mi Calm Calm - N/A   Clear
6:35 AM 39.2 °F - 37.4 °F 93% 30.09 in 10.0 mi Calm Calm - N/A   Clear
6:55 AM 39.2 °F - 37.4 °F 93% 30.10 in 10.0 mi Calm Calm - N/A   Clear
7:15 AM 39.2 °F - 37.4 °F 93% 30.10 in 10.0 mi Calm Calm - N/A   Clear
7:35 AM 41.0 °F - 37.4 °F 87% 30.11 in 10.0 mi Calm Calm - N/A   Clear
7:55 AM 42.8 °F - 37.4 °F 81% 30.12 in 10.0 mi Calm Calm - N/A   Clear
8:15 AM 44.6 °F - 39.2 °F 81% 30.12 in 10.0 mi Calm Calm - N/A   Clear
8:35 AM 46.4 °F 45.2 °F 41.0 °F 81% 30.12 in 10.0 mi ESE 3.5 mph - N/A   Clear
8:55 AM 48.2 °F - 41.0 °F 76% 30.13 in 10.0 mi Calm Calm - N/A   Clear
9:15 AM 51.8 °F - 39.2 °F 62% 30.13 in 10.0 mi South 4.6 mph - N/A   Clear
9:35 AM 51.8 °F - 39.2 °F 62% 30.14 in 10.0 mi SSW 5.8 mph - N/A   Clear
9:55 AM 51.8 °F - 39.2 °F 62% 30.14 in 10.0 mi South 5.8 mph - N/A   Clear
10:15 AM 53.6 °F - 39.2 °F 58% 30.14 in 10.0 mi SSE 5.8 mph - N/A   Clear
10:35 AM 53.6 °F - 39.2 °F 58% 30.14 in 10.0 mi SSE 5.8 mph - N/A   Clear
10:55 AM 55.4 °F - 41.0 °F 58% 30.14 in 10.0 mi South 9.2 mph - N/A   Clear
11:15 AM 59.0 °F - 41.0 °F 51% 30.14 in 10.0 mi SSE 3.5 mph - N/A   Clear
11:35 AM 59.0 °F - 41.0 °F 51% 30.13 in 10.0 mi SSE 8.1 mph - N/A   Clear
11:55 AM 62.6 °F - 41.0 °F 45% 30.12 in 10.0 mi South 11.5 mph 17.3 mph N/A   Clear
12:15 PM 64.4 °F - 41.0 °F 42% 30.11 in 10.0 mi SSE 9.2 mph 17.3 mph N/A   Clear
12:35 PM 66.2 °F - 41.0 °F 40% 30.10 in 10.0 mi South 9.2 mph 17.3 mph N/A   Clear
12:55 PM 68.0 °F - 41.0 °F 37% 30.09 in 10.0 mi South 15.0 mph 19.6 mph N/A   Clear
1:15 PM 68.0 °F - 41.0 °F 37% 30.07 in 10.0 mi South 13.8 mph 21.9 mph N/A   Clear
1:35 PM 69.8 °F - 41.0 °F 35% 30.07 in 10.0 mi South 13.8 mph 20.7 mph N/A   Clear
1:55 PM 69.8 °F - 42.8 °F 38% 30.05 in 10.0 mi South 17.3 mph 25.3 mph N/A   Clear
2:15 PM 69.8 °F - 41.0 °F 35% 30.05 in 10.0 mi South 15.0 mph 24.2 mph N/A   Clear
2:35 PM 69.8 °F - 41.0 °F 35% 30.04 in 10.0 mi South 8.1 mph 25.3 mph N/A   Clear
2:55 PM 69.8 °F - 41.0 °F 35% 30.04 in 10.0 mi South 16.1 mph 21.9 mph N/A   Clear
3:15 PM 69.8 °F - 41.0 °F 35% 30.03 in 10.0 mi South 17.3 mph 27.6 mph N/A   Clear
3:55 PM 71.6 °F - 37.4 °F 29% 30.02 in 10.0 mi South 12.7 mph 23.0 mph N/A   Clear
4:15 PM 69.8 °F - 39.2 °F 33% 30.01 in 10.0 mi South 20.7 mph 25.3 mph N/A   Clear
4:35 PM 69.8 °F - 41.0 °F 35% 30.01 in 10.0 mi South 17.3 mph 26.5 mph N/A   Clear
4:55 PM 69.8 °F - 41.0 °F 35% 30.00 in 10.0 mi SSE 15.0 mph 24.2 mph N/A   Clear
5:15 PM 69.8 °F - 41.0 °F 35% 30.00 in 10.0 mi South 9.2 mph 23.0 mph N/A   Clear
5:35 PM 69.8 °F - 41.0 °F 35% 30.00 in 10.0 mi SSE 13.8 mph 24.2 mph N/A   Clear
5:55 PM 68.0 °F - 39.2 °F 35% 30.00 in 10.0 mi SSE 15.0 mph 24.2 mph N/A   Clear
6:15 PM 68.0 °F - 41.0 °F 37% 30.00 in 10.0 mi SSE 11.5 mph 21.9 mph N/A   Clear
6:35 PM 68.0 °F - 41.0 °F 37% 30.00 in 10.0 mi SSE 11.5 mph 20.7 mph N/A   Clear
6:55 PM 66.2 °F - 41.0 °F 40% 30.00 in 10.0 mi South 10.4 mph 18.4 mph N/A   Clear
7:15 PM 64.4 °F - 41.0 °F 42% 30.01 in 10.0 mi SSE 8.1 mph 16.1 mph N/A   Clear
7:35 PM 64.4 °F - 41.0 °F 42% 30.02 in 10.0 mi SSE 8.1 mph - N/A   Clear
7:55 PM 62.6 °F - 41.0 °F 45% 30.03 in 10.0 mi SSE 6.9 mph - N/A   Clear
8:15 PM 62.6 °F - 41.0 °F 45% 30.04 in 10.0 mi SSE 5.8 mph - N/A   Clear
8:35 PM 60.8 °F - 41.0 °F 48% 30.05 in 10.0 mi SSE 5.8 mph - N/A   Clear
8:55 PM 60.8 °F - 41.0 °F 48% 30.07 in 10.0 mi South 6.9 mph - N/A   Clear
9:15 PM 60.8 °F - 41.0 °F 48% 30.07 in 10.0 mi SSE 6.9 mph - N/A   Clear
9:55 PM 59.0 °F - 41.0 °F 51% 30.09 in 10.0 mi SE 4.6 mph - N/A   Clear
10:15 PM 59.0 °F - 41.0 °F 51% 30.09 in 10.0 mi SE 5.8 mph - N/A   Clear
10:35 PM 59.0 °F - 41.0 °F 51% 30.10 in 10.0 mi SSE 5.8 mph - N/A   Clear
10:55 PM 59.0 °F - 41.0 °F 51% 30.10 in 10.0 mi SSE 6.9 mph - N/A   Clear
11:15 PM 57.2 °F - 41.0 °F 55% 30.10 in 10.0 mi SSE 5.8 mph - N/A   Clear
11:35 PM 57.2 °F - 41.0 °F 55% 30.10 in 10.0 mi SSE 3.5 mph - N/A   Clear
11:55 PM 55.4 °F - 41.0 °F 58% 30.10 in 10.0 mi SE 4.6 mph - N/A   Clear